Change the Weather History Date:

Monday, June 9, 2014

  Actual Average (KDEN) Record (KDEN)
Temperature  
Mean Temperature 29 °F 65 °F  
Max Temperature 41 °F 80 °F 95 °F (2002)
Min Temperature 17 °F 51 °F 37 °F (1889)
Degree Days  
Heating Degree Days 36 3  
Month to date heating degree days 32  
Since 1 June heating degree days 32  
Since 1 July heating degree days 6028  
Cooling Degree Days 0 3  
Month to date cooling degree days 23  
Year to date cooling degree days 45  
Since 1 June cooling degree days 23  
Moisture  
Dew Point 17 °F    
Average Humidity 65    
Maximum Humidity 70    
Minimum Humidity 58    
Precipitation  
Precipitation 0.02 in 0.07 in 2.18 in (1923)
Month to date precipitation 0.67  
Year to date precipitation 6.20  
Snow  
Snow 0.00 in - - ()
Month to date snowfall  
Since 1 June snowfall  
Since 1 July snowfall  
Snow Depth -    
Sea Level Pressure  
Sea Level Pressure 30.40 in    
Wind  
Wind Speed 18 mph (NW)    
Max Wind Speed 32 mph    
Max Gust Speed 41 mph    
Visibility 10 miles    
Events      
T = Trace of Precipitation, MM = Missing Value Source: NWS Daily Summary

Daily Weather History Graph

Daily Weather History Graph

Search for Another Location

Airport or City:

Trip Planner

Search our weather history database for the weather conditions in past years. The results will help you decide how hot, cold, wet, or windy it might be!

Date:

Astronomy

Jun. 09, 2014 Rise Set
Actual Time 5:34 AM MDT 8:30 PM MDT
Civil Twilight 5:02 AM MDT 9:02 PM MDT
Nautical Twilight 4:21 AM MDT 9:43 PM MDT
Astronomical Twilight 3:33 AM MDT 10:31 PM MDT
Moon 4:54 PM MDT (6/9) 3:03 AM MDT (6/9)
Length of Visible Light 16h 00m
Length of Day
14h 55m
Waxing Gibbous, 85% of the Moon is Illuminated
Jun 9
Waxing Gibbous
Jun 12
Full
Jun 19
Last Quarter
Jun 27
New
Jul 5
First Quarter

Hourly Weather History & Observations

Time (MDT) Temp. Windchill Dew Point Humidity Pressure Visibility Wind Dir Wind Speed Gust Speed Precip Events Conditions
12:15 AM 23.0 °F 6.9 °F 12.2 °F 63% 30.34 in - NNW 24.2 mph 35.7 mph N/A   Overcast
12:35 AM 23.0 °F 7.6 °F 12.2 °F 63% 30.34 in - NNW 21.9 mph 35.7 mph N/A   Overcast
12:55 AM 23.0 °F 8.7 °F 12.2 °F 63% 30.34 in - North 18.4 mph 31.1 mph N/A   Overcast
1:15 AM 21.2 °F 4.5 °F 12.2 °F 68% 30.34 in - NNW 24.2 mph 41.4 mph N/A   Overcast
1:35 AM 21.2 °F 8.3 °F 10.4 °F 63% 30.35 in - NNW 13.8 mph 33.4 mph N/A   Overcast
1:55 AM 21.2 °F 7.3 °F 10.4 °F 63% 30.35 in - North 16.1 mph 34.5 mph N/A   Overcast
2:15 AM 19.4 °F 5.0 °F 10.4 °F 68% 30.35 in - NNW 16.1 mph 31.1 mph N/A   Overcast
2:35 AM 19.4 °F 4.5 °F 10.4 °F 68% 30.36 in - NNW 17.3 mph 29.9 mph N/A   Overcast
2:55 AM 19.4 °F 4.5 °F 8.6 °F 63% 30.36 in - NNW 17.3 mph 27.6 mph N/A   Overcast
3:14 AM 19.4 °F 4.5 °F 8.6 °F 63% 30.35 in - NNW 17.3 mph 25.3 mph N/A   Overcast
3:35 AM 19.4 °F 4.1 °F 8.6 °F 63% 30.35 in - NNW 18.4 mph 26.5 mph N/A   Overcast
3:54 AM 19.4 °F 3.6 °F 8.6 °F 63% 30.36 in - NNW 19.6 mph 26.5 mph N/A   Overcast
4:15 AM 17.6 °F 3.7 °F 8.6 °F 68% 30.35 in - North 13.8 mph 23.0 mph N/A   Overcast
4:35 AM 19.4 °F 7.2 °F 8.6 °F 63% 30.35 in - North 11.5 mph 24.2 mph N/A   Overcast
4:55 AM 17.6 °F 3.2 °F 6.8 °F 63% 30.35 in - North 15.0 mph 29.9 mph N/A   Overcast
5:15 AM 17.6 °F 1.3 °F 6.8 °F 63% 30.35 in - NNW 19.6 mph 27.6 mph N/A   Mostly Cloudy
5:35 AM 17.6 °F 5.7 °F 5.0 °F 58% 30.36 in - North 10.4 mph 20.7 mph N/A   Scattered Clouds
5:55 AM 17.6 °F 5.7 °F 5.0 °F 58% 30.37 in - North 10.4 mph 24.2 mph N/A   Clear
6:15 AM 17.6 °F 1.3 °F 5.0 °F 58% 30.37 in - NNW 19.6 mph 25.3 mph N/A   Clear
6:35 AM 17.6 °F 1.7 °F 5.0 °F 58% 30.37 in - NNW 18.4 mph 21.9 mph N/A   Clear
6:55 AM 17.6 °F 3.7 °F 5.0 °F 58% 30.38 in - NNW 13.8 mph - N/A   Clear
7:14 AM 17.6 °F 6.4 °F 6.8 °F 63% 30.38 in - North 9.2 mph 24.2 mph N/A   Clear
7:35 AM 17.6 °F 2.2 °F 6.8 °F 63% 30.38 in - NNW 17.3 mph 24.2 mph N/A   Clear
7:55 AM 19.4 °F 6.0 °F 8.6 °F 63% 30.38 in - NNW 13.8 mph 24.2 mph N/A   Clear
8:14 AM 19.4 °F 11.5 °F 8.6 °F 63% 30.39 in - North 5.8 mph 23.0 mph N/A   Clear
8:35 AM 19.4 °F 12.8 °F 8.6 °F 63% 30.39 in - North 4.6 mph - N/A   Clear
9:14 AM 21.2 °F 13.6 °F 10.4 °F 63% 30.41 in - North 5.8 mph - N/A   Clear
9:35 AM 21.2 °F 12.6 °F 10.4 °F 63% 30.41 in - North 6.9 mph 19.6 mph N/A   Clear
9:55 AM 23.0 °F 11.1 °F 12.2 °F 63% 30.41 in - NNW 12.7 mph 21.9 mph N/A   Clear
10:35 AM 23.0 °F 13.1 °F 12.2 °F 63% 30.41 in - North 9.2 mph 23.0 mph N/A   Scattered Clouds
10:55 AM 24.8 °F 16.9 °F 14.0 °F 64% 30.42 in - North 6.9 mph 24.2 mph N/A   Scattered Clouds
11:15 AM 24.8 °F 13.4 °F 14.0 °F 64% 30.42 in - NNW 12.7 mph 25.3 mph N/A   Scattered Clouds
11:35 AM 26.6 °F 14.3 °F 14.0 °F 59% 30.43 in - NNW 16.1 mph 23.0 mph N/A   Scattered Clouds
11:55 AM 26.6 °F 15.2 °F 15.8 °F 64% 30.44 in - NNW 13.8 mph 24.2 mph N/A   Clear
12:15 PM 28.4 °F 17.0 °F 17.6 °F 64% 30.43 in - NNW 15.0 mph 23.0 mph N/A   Clear
12:34 PM 28.4 °F 18.5 °F 17.6 °F 64% 30.43 in - NNW 11.5 mph 23.0 mph N/A   Clear
2:15 PM 32.0 °F 19.5 °F 23.0 °F 69% 30.43 in - NNW 21.9 mph 25.3 mph N/A   Clear
2:31 PM 33.8 °F 21.9 °F 24.8 °F 70% 30.42 in - WNW 21.9 mph 28.8 mph N/A   Clear
3:51 PM 37.4 °F 27.8 °F 28.4 °F 70% 30.43 in 10.0 mi NW 17.3 mph 24.2 mph 0.02 in   Clear
4:06 PM 39.2 °F 29.6 °F 30.2 °F 70% 30.43 in 10.0 mi NW 19.6 mph 24.2 mph N/A   Clear
4:33 PM 39.2 °F 29.6 °F 30.2 °F 70% 30.43 in 10.0 mi WNW 19.6 mph 31.1 mph N/A   Clear
4:55 PM 41.0 °F 31.1 °F 30.2 °F 65% 30.43 in 10.0 mi NW 23.0 mph 31.1 mph N/A   Clear
5:15 PM 41.0 °F 31.4 °F 30.2 °F 65% 30.43 in 10.0 mi NW 21.9 mph 27.6 mph N/A   Clear
5:35 PM 41.0 °F 30.9 °F 30.2 °F 65% 30.42 in 10.0 mi WNW 24.2 mph 29.9 mph N/A   Clear
5:55 PM 41.0 °F 30.2 °F 30.2 °F 65% 30.41 in 10.0 mi WNW 27.6 mph 31.1 mph N/A   Clear
6:15 PM 41.0 °F 30.7 °F 30.2 °F 65% 30.42 in 10.0 mi NW 25.3 mph 32.2 mph N/A   Clear
6:35 PM 41.0 °F 29.8 °F 30.2 °F 65% 30.41 in 10.0 mi WNW 29.9 mph - N/A   Clear
6:55 PM 39.2 °F 27.8 °F 30.2 °F 70% 30.42 in 10.0 mi WNW 27.6 mph 33.4 mph N/A   Clear
7:15 PM 39.2 °F 27.8 °F 30.2 °F 70% 30.42 in 10.0 mi WNW 27.6 mph 32.2 mph N/A   Clear
7:35 PM 37.4 °F 26.6 °F 28.4 °F 70% 30.43 in 10.0 mi WNW 21.9 mph - N/A   Clear
7:55 PM 37.4 °F 26.9 °F 28.4 °F 70% 30.44 in 10.0 mi WNW 20.7 mph - N/A   Clear
8:14 PM 35.6 °F 24.2 °F 26.6 °F 70% 30.44 in 10.0 mi WNW 21.9 mph 31.1 mph N/A   Clear
8:35 PM 35.6 °F 25.2 °F 26.6 °F 70% 30.44 in 10.0 mi WNW 18.4 mph 26.5 mph N/A   Clear
8:55 PM 33.8 °F 22.5 °F 24.8 °F 70% 30.44 in 10.0 mi WNW 19.6 mph 25.3 mph N/A   Clear
9:14 PM 33.8 °F 23.2 °F 24.8 °F 70% 30.44 in 10.0 mi WNW 17.3 mph 23.0 mph N/A   Clear
9:35 PM 33.8 °F 23.2 °F 24.8 °F 70% 30.45 in 10.0 mi WNW 17.3 mph - N/A   Clear
9:55 PM 33.8 °F 22.2 °F 24.8 °F 70% 30.45 in 10.0 mi WNW 20.7 mph 28.8 mph N/A   Clear
10:15 PM 33.8 °F 22.5 °F 24.8 °F 70% 30.45 in 10.0 mi WNW 19.6 mph 29.9 mph N/A   Clear
10:35 PM 33.8 °F 22.2 °F 24.8 °F 70% 30.45 in 10.0 mi WNW 20.7 mph 25.3 mph N/A   Clear
10:55 PM 33.8 °F 21.3 °F 24.8 °F 70% 30.44 in 10.0 mi WNW 24.2 mph 29.9 mph N/A   Clear
11:14 PM 32.0 °F 18.6 °F 23.0 °F 69% 30.43 in 10.0 mi WNW 25.3 mph 33.4 mph N/A   Clear
11:34 PM 32.0 °F 17.2 °F 23.0 °F 69% 30.42 in 10.0 mi WNW 32.2 mph 36.8 mph N/A   Clear
11:55 PM 33.8 °F 19.6 °F 23.0 °F 65% 30.41 in 10.0 mi WNW 32.2 mph 40.3 mph N/A   Clear